DW5679 Weather Reports


Display with metric or nautical units.
time (UTC)temp
F
wind
direction
speed
MPH
gust
MPH
rain 1hr
in
rain 24hr
in
rain mn
in
humidity
%
barometer
mb
20260503203035 77 335 0.0 3.0 0.00 0.00 0.00 44 1017.1
20260503203032 77 38 0.0 10.0 0.00 0.00 0.00 45 1016.4
20260503201528 77 355 3.0 8.0 0.00 0.00 0.00 43 1016.6
20260503200027 76 316 4.0 9.0 0.00 0.00 0.00 43 1017.7
20260503194525 77 197 0.0 10.0 0.00 0.00 0.00 46 1018.0
20260503194522 77 145 0.0 10.0 0.00 0.00 0.00 45 1017.3
20260503193035 77 17 0.0 4.0 0.00 0.00 0.00 47 1018.3
20260503193019 77 43 0.0 4.0 0.00 0.00 0.00 46 1017.6
20260503191540 77 333 0.0 4.0 0.00 0.00 0.00 42 1018.5
20260503191514 77 8 0.0 4.0 0.00 0.00 0.00 42 1017.8
20260503190027 76 14 0.0 7.0 0.00 0.00 0.00 44 1018.3
20260503184526 75 24 2.0 7.0 0.00 0.00 0.00 43 1018.6
20260503184514 75 354 1.0 7.0 0.00 0.00 0.00 43 1019.1
20260503183027 74 50 0.0 3.0 0.00 0.00 0.00 46 1018.7
20260503183009 74 21 0.0 3.0 0.00 0.00 0.00 47 1019.3
20260503181524 72 49 0.0 9.0 0.00 0.00 0.00 48 1019.1
20260503181506 72 19 0.0 9.0 0.00 0.00 0.00 49 1019.7
20260503180022 72 65 0.0 3.0 0.00 0.00 0.00 48 1019.3
20260503180005 72 35 0.0 3.0 0.00 0.00 0.00 48 1019.9
20260503174605 71 108 0.0 2.0 0.00 0.00 0.00 49 1020.1
20260503174532 71 78 0.0 3.0 0.00 0.00 0.00 49 1019.6
20260503173103 70 3 0.0 6.0 0.00 0.00 0.00 47 1020.5
20260503173033 70 145 0.0 6.0 0.00 0.00 0.00 48 1019.8
20260503171554 69 27 0.0 3.0 0.00 0.00 0.00 47 1020.8
20260503171527 69 335 0.0 3.0 0.00 0.00 0.00 49 1020.0
20260503170103 69 59 0.0 4.0 0.00 0.00 0.00 50 1020.9
20260503150112 59 48 0.0 1.0 0.00 0.00 0.00 66 1022.2
20260503081522 47 57 0.0 0.0 0.00 0.00 0.00 84 1020.2
20260503081503 47 27 0.0 0.0 0.00 0.00 0.00 84 1021.0
20260503080106 47 27 0.0 0.0 0.00 0.00 0.00 83 1021.0
20260503071611 49 11 0.0 0.0 0.00 0.00 0.00 85 1020.9
20260503071524 49 41 0.0 0.0 0.00 0.00 0.00 85 1020.3
20260503054604 50 38 0.0 0.0 0.00 0.00 0.00 76 1020.9
20260503054530 51 68 0.0 0.0 0.00 0.00 0.00 76 1020.4
20260503053042 51 17 0.0 0.0 0.00 0.00 0.00 77 1020.9
20260503053035 51 47 0.0 0.0 0.00 0.00 0.00 77 1020.4
20260503051539 51 17 0.0 0.0 0.00 0.00 0.00 75 1020.8
20260503051524 51 47 0.0 0.0 0.00 0.00 0.00 74 1020.3
20260503050037 52 17 0.0 0.0 0.00 0.00 0.00 73 1020.8
20260503050023 52 47 0.0 0.0 0.00 0.00 0.00 72 1020.2
20260503044541 53 47 0.0 0.0 0.00 0.00 0.00 70 1020.2
20260503043047 54 17 0.0 0.0 0.00 0.00 0.00 67 1020.7
20260503043037 54 47 0.0 0.0 0.00 0.00 0.00 67 1020.2
20260503041535 55 4 0.0 2.0 0.00 0.00 0.00 64 1020.6
20260503041516 55 34 0.0 2.0 0.00 0.00 0.00 64 1020.1
20260503040037 55 349 0.0 1.0 0.00 0.00 0.00 72 1020.4
20260503040012 55 19 0.0 1.0 0.00 0.00 0.00 71 1019.8
20260503034540 55 340 1.0 3.0 0.00 0.00 0.00 68 1020.3
20260503034508 55 5 2.0 3.0 0.00 0.00 0.00 68 1019.7
20260503033033 56 1 0.0 1.0 0.00 0.00 0.00 67 1020.2
20260503033025 56 19 0.0 1.0 0.00 0.00 0.00 67 1019.6
20260503031533 56 357 0.0 1.0 0.00 0.00 0.00 64 1020.0
20260503031527 56 22 0.0 1.0 0.00 0.00 0.00 64 1019.4
20260503030036 57 349 0.0 2.0 0.00 0.00 0.00 63 1019.8
20260503030020 57 19 0.0 2.0 0.00 0.00 0.00 61 1019.3
20260503024536 58 349 0.0 1.0 0.00 0.00 0.00 62 1019.6
20260503024515 58 19 0.0 1.0 0.00 0.00 0.00 60 1019.1
20260503023035 58 347 0.0 1.0 0.00 0.00 0.00 61 1019.7
20260503023015 58 16 0.0 1.0 0.00 0.00 0.00 60 1019.1
20260503021531 57 29 0.0 0.0 0.00 0.00 0.00 59 1019.4
20260503021510 57 59 0.0 0.0 0.00 0.00 0.00 59 1018.8
20260503020031 58 28 0.0 0.0 0.00 0.00 0.00 55 1019.3
20260503020024 59 58 0.0 0.0 0.00 0.00 0.00 55 1018.5
20260503014530 60 28 0.0 0.0 0.00 0.00 0.00 53 1019.1
20260503014524 60 58 0.0 0.0 0.00 0.00 0.00 52 1018.4
20260503013037 61 28 0.0 0.0 0.00 0.00 0.00 51 1019.0
20260503013024 61 58 0.0 0.0 0.00 0.00 0.00 51 1018.3
20260503011529 63 28 0.0 0.0 0.00 0.00 0.00 47 1018.9
20260503011522 63 59 0.0 0.0 0.00 0.00 0.00 47 1018.2
20260503010027 65 29 0.0 1.0 0.00 0.00 0.00 44 1018.7
20260503010023 65 58 0.0 1.0 0.00 0.00 0.00 43 1018.0
20260503004533 67 6 0.0 1.0 0.00 0.00 0.00 40 1018.5
20260503004514 67 45 0.0 3.0 0.00 0.00 0.00 40 1017.9
20260503003036 69 1 0.0 5.0 0.00 0.00 0.00 40 1018.4
20260503003025 69 17 0.0 5.0 0.00 0.00 0.00 39 1017.8
20260503001528 69 12 1.0 7.0 0.00 0.00 0.00 38 1017.6
20260503001515 69 5 0.0 7.0 0.00 0.00 0.00 39 1018.3
20260503000041 70 349 1.0 6.0 0.00 0.00 0.00 37 1017.6
20260503000025 70 323 1.0 6.0 0.00 0.00 0.00 38 1018.2
20260502234556 70 318 2.0 6.0 0.00 0.00 0.00 40 1017.9
20260502234520 70 16 2.0 6.0 0.00 0.00 0.00 37 1017.4
20260502233040 70 320 2.0 12.0 0.00 0.00 0.00 40 1018.1
20260502233019 70 355 3.0 12.0 0.00 0.00 0.00 37 1017.4
20260502231604 69 342 2.0 7.0 0.00 0.00 0.00 38 1018.2
20260502231533 69 18 3.0 7.0 0.00 0.00 0.00 37 1017.4
20260502230105 69 349 2.0 8.0 0.00 0.00 0.00 39 1018.2
20260502230026 70 8 2.0 8.0 0.00 0.00 0.00 38 1017.4
20260502224527 70 14 3.0 10.0 0.00 0.00 0.00 42 1017.4
20260502224516 70 49 2.0 10.0 0.00 0.00 0.00 43 1018.2
20260502223120 70 6 3.0 10.0 0.00 0.00 0.00 38 1018.2
20260502223029 70 2 3.0 10.0 0.00 0.00 0.00 37 1017.4
20260502221530 69 339 3.0 7.0 0.00 0.00 0.00 41 1018.1
20260502221522 69 38 4.0 7.0 0.00 0.00 0.00 39 1017.3
20260502220029 69 27 3.0 10.0 0.00 0.00 0.00 40 1018.0
20260502220020 69 357 4.0 10.0 0.00 0.00 0.00 39 1017.3
20260502214530 70 38 5.0 10.0 0.00 0.00 0.00 39 1017.4
20260502214528 70 340 5.0 10.0 0.00 0.00 0.00 38 1018.1
20260502213037 69 353 3.0 7.0 0.00 0.00 0.00 40 1017.5
20260502213027 69 333 3.0 7.0 0.00 0.00 0.00 40 1018.2
20260502211534 70 360 6.0 10.0 0.00 0.00 0.00 39 1017.6
20260502211526 70 335 5.0 10.0 0.00 0.00 0.00 39 1018.3
20260502210034 70 356 4.0 10.0 0.00 0.00 0.00 39 1018.4
20260502210024 70 45 4.0 10.0 0.00 0.00 0.00 39 1017.7
20260502204525 70 335 4.0 11.0 0.00 0.00 0.00 39 1018.6